Weather History for Hermiston, OR

Change the Weather History Date:

Friday, February 15, 2013

  Actual Average Record
Temperature  
Mean Temperature 38 °F -  
Max Temperature 55 °F 48 °F 63 °F (1982)
Min Temperature 21 °F 30 °F -8 °F (1936)
Degree Days  
Heating Degree Days 27    
Moisture  
Dew Point 30 °F    
Average Humidity 85    
Maximum Humidity 100    
Minimum Humidity 51    
Precipitation  
Precipitation 0.00 in - - ()
Sea Level Pressure  
Sea Level Pressure 30.44 in    
Wind  
Wind Speed 3 mph (ESE)    
Max Wind Speed 9 mph    
Max Gust Speed -    
Visibility 7 miles    
Events      
Averages and records for this station are not official NWS values.
T = Trace of Precipitation, MM = Missing Value Source: NWS Daily Summary

Daily Weather History Graph

Daily Weather History Graph

Search for Another Location

Airport:

Trip Planner

Search our weather history database for the weather conditions in past years. The results will help you decide how hot, cold, wet, or windy it might be!

Date:

Astronomy

Feb. 15, 2013 Rise Set
Actual Time 6:58 AM PST 5:24 PM PST
Civil Twilight 6:28 AM PST 5:54 PM PST
Nautical Twilight 5:53 AM PST 6:29 PM PST
Astronomical Twilight 5:18 AM PST 7:04 PM PST
Moon 9:17 AM PST (2/15) 11:52 PM PST (2/15)
Length of Visible Light 11h 26m
Length of Day
10h 25m
Waxing Crescent, 31% of the Moon is Illuminated
Feb 15
Waxing Crescent
Feb 17
First Quarter
Feb 25
Full
Mar 4
Last Quarter
Mar 11
New

Hourly Weather History & Observations

Time (PST) Temp. Windchill Dew Point Humidity Pressure Visibility Wind Dir Wind Speed Gust Speed Precip Events Conditions
12:53 AM 32.0 °F 28.7 °F 30.0 °F 92% 30.53 in 10.0 mi SE 3.5 mph - N/A   Clear
1:53 AM 27.0 °F 23.0 °F 26.1 °F 96% 30.53 in 10.0 mi ESE 3.5 mph - N/A   Clear
2:53 AM 26.1 °F 21.9 °F 26.1 °F 100% 30.53 in 9.0 mi ESE 3.5 mph - N/A   Clear
3:53 AM 27.0 °F - 26.1 °F 96% 30.51 in 5.0 mi Calm Calm - N/A   Clear
4:32 AM 26.6 °F - 26.6 °F 100% 30.50 in 1.5 mi Calm Calm - N/A   Clear
4:42 AM 28.4 °F - 26.6 °F 93% 30.50 in 4.0 mi Calm Calm - N/A   Clear
4:53 AM 26.1 °F - 25.0 °F 96% 30.51 in 1.5 mi Calm Calm - N/A   Clear
5:01 AM 26.6 °F 22.6 °F 24.8 °F 93% 30.50 in 3.0 mi East 3.5 mph - N/A   Clear
5:53 AM 25.0 °F - 25.0 °F 100% 30.52 in 6.0 mi Calm Calm - N/A   Clear
6:08 AM 24.8 °F - 24.8 °F 100% 30.50 in 1.8 mi Calm Calm - N/A   Clear
6:18 AM 24.8 °F - 24.8 °F 100% 30.50 in 3.0 mi Calm Calm - N/A   Clear
6:42 AM 23.0 °F - 21.2 °F 93% 30.50 in 1.5 mi Calm Calm - N/A   Clear
6:51 AM 21.2 °F 16.4 °F 21.2 °F 100% 30.50 in 0.8 mi SSE 3.5 mph - N/A   Clear
6:53 AM 23.0 °F 18.4 °F 21.0 °F 92% 30.52 in 0.8 mi South 3.5 mph - N/A   Clear
7:08 AM 24.8 °F 20.5 °F 23.0 °F 93% 30.51 in 2.5 mi SE 3.5 mph - N/A   Clear
7:15 AM 26.6 °F 22.6 °F 24.8 °F 93% 30.50 in 5.0 mi SE 3.5 mph - N/A   Clear
7:53 AM 30.9 °F - 30.0 °F 96% 30.53 in 9.0 mi Calm Calm - N/A   Clear
8:53 AM 36.0 °F - 33.1 °F 89% 30.53 in 10.0 mi Calm Calm - N/A   Clear
9:53 AM 39.9 °F - 35.1 °F 83% 30.53 in 10.0 mi Calm Calm - N/A   Clear
10:53 AM 45.0 °F - 36.0 °F 71% 30.51 in 10.0 mi Calm Calm - N/A   Clear
11:53 AM 48.9 °F - 37.0 °F 64% 30.48 in 10.0 mi Variable 3.5 mph - N/A   Clear
12:53 PM 53.1 °F - 39.0 °F 59% 30.43 in 10.0 mi North 6.9 mph - N/A   Clear
1:53 PM 55.0 °F - 39.0 °F 55% 30.40 in 10.0 mi NNE 5.8 mph - N/A   Clear
2:53 PM 55.9 °F - 37.9 °F 51% 30.37 in 10.0 mi NNE 5.8 mph - N/A   Clear
3:53 PM 55.0 °F - 37.0 °F 51% 30.34 in 10.0 mi ENE 9.2 mph - N/A   Clear
4:53 PM 52.0 °F - 37.0 °F 57% 30.32 in 10.0 mi NE 9.2 mph - N/A   Clear
5:53 PM 45.0 °F 41.2 °F 35.1 °F 68% 30.32 in 10.0 mi ENE 6.9 mph - N/A   Clear
6:53 PM 37.0 °F 33.3 °F 32.0 °F 82% 30.31 in 10.0 mi East 4.6 mph - N/A   Clear
7:53 PM 39.0 °F - 34.0 °F 82% 30.29 in 10.0 mi Calm Calm - N/A   Clear
8:53 PM 34.0 °F 29.8 °F 30.9 °F 89% 30.28 in 10.0 mi South 4.6 mph - N/A   Clear
9:53 PM 34.0 °F 29.8 °F 32.0 °F 92% 30.27 in 10.0 mi South 4.6 mph - N/A   Clear
10:53 PM 33.1 °F 28.7 °F 30.9 °F 92% 30.27 in 10.0 mi SSW 4.6 mph - N/A   Clear
11:53 PM 30.9 °F 27.5 °F 28.9 °F 92% 30.27 in 9.0 mi SSW 3.5 mph - N/A   Clear